[[{"header":{"parameterUnit":"m.s-1","parameterCategory":1,"la1":30.2991,"la2":30.254,"lo1":-89.0895,"lo2":-89.0444,"dy":0.0017,"dx":0.0017,"nx":28,"ny":28,"refTime":"2024-10-07T09:00:00:Z","depth":0,"parameterNumber":2,"parameterNumberName":"U-component_of_WINDS"},"data":[0,0,0,0,0,0,0,0,0,0,0,0,0,0,0,0,0,0,0,0,0,0,0,0,0,0,0,0,0,0,0,0,0,0,0,0,0,0,0,0,0,0,0,0,0,0,0,0,0,0,0,0,0,0,0,0,0,0,-1.4588,-1.4588,0,-1.4571,-1.4571,-1.457,-1.4514,-1.4513,-1.4511,-1.451,-1.4495,-1.4496,-1.4496,0,0,0,0,0,0,0,0,0,0,0,0,0,-1.4573,-1.4574,-1.4588,-1.4588,-1.4587,-1.4571,-1.4571,-1.457,-1.4514,-1.4513,-1.4511,-1.451,-1.4494,-1.4495,-1.4496,0,0,0,0,0,0,0,0,0,0,0,0,0,-1.457,-1.4574,-1.4588,-1.4557,-1.4554,-1.4571,-1.4571,-1.457,-1.4514,-1.4512,-1.4511,-1.4509,-1.4494,-1.4495,-1.4496,-1.4542,0,0,-1.45,-1.4501,0,0,0,0,0,0,0,0,-1.4571,-1.4571,-1.4562,-1.4559,-1.4556,-1.4542,-1.456,-1.4561,-1.4515,-1.453,-1.451,-1.4508,-1.4512,-1.4512,-1.4513,-1.4541,-1.454,-1.45,-1.4501,-1.4501,-1.4502,0,0,0,0,0,0,0,-1.4571,-1.4571,-1.4581,-1.4562,-1.4558,-1.4545,-1.4542,-1.456,-1.4532,-1.4528,-1.4524,-1.4523,-1.451,-1.4512,-1.4512,-1.454,-1.45,-1.4501,-1.4502,-1.4502,-1.4605,-1.4607,0,0,0,0,0,0,-1.4575,-1.4572,-1.4582,-1.4581,-1.4559,-1.4547,-1.4544,-1.4549,-1.4532,-1.4527,-1.4524,-1.452,-1.4511,-1.4511,-1.4511,-1.4564,-1.4501,-1.4502,-1.4503,-1.4603,-1.4606,-1.4608,0,0,0,0,0,0,-1.4575,-1.4577,-1.4582,-1.4575,-1.4575,-1.4549,-1.4555,-1.455,-1.4551,-1.4529,-1.4524,-1.4531,-1.4509,-1.451,-1.4535,-1.4562,-1.4503,-1.4504,-1.4601,-1.4604,-1.4607,-1.4669,0,0,0,0,0,0,-1.4575,-1.4577,-1.4594,-1.4576,-1.4575,-1.4606,-1.4557,-1.4551,-1.4553,-1.4547,-1.4534,-1.4529,-1.4508,-1.4533,-1.4536,-1.4563,-1.4505,-1.4598,-1.4602,-1.4606,-1.4664,-1.4673,-1.4681,0,0,0,0,0,-1.4575,-1.4612,-1.4595,-1.4596,-1.4596,-1.4607,-1.4607,-1.4581,-1.4555,-1.4572,-1.4558,-1.453,-1.4559,-1.4536,-1.4539,-1.4567,-1.4596,-1.4601,-1.4605,-1.466,-1.4671,-1.4681,0,0,0,0,0,0,-1.4635,-1.4609,-1.459,-1.4622,-1.4617,-1.4598,-1.4618,-1.4594,-1.4597,-1.4591,-1.4559,-1.4557,-1.4586,-1.4579,-1.4554,-1.461,-1.4573,-1.4578,-1.4614,-1.4624,-1.4633,-1.4634,-1.4506,0,0,0,0,0,-1.4651,-1.4662,-1.464,-1.4671,-1.4669,-1.4644,-1.4648,-1.4629,-1.4622,-1.462,-1.4608,-1.4603,-1.4611,-1.4617,-1.4623,-1.4662,-1.4659,-1.4683,-1.4691,-1.4699,-1.4704,-1.4724,-1.4735,-1.4623,-1.4623,-1.4623,0,0,-1.4687,-1.4674,-1.4683,-1.4683,-1.4676,-1.4689,-1.4643,-1.4658,-1.4668,-1.4623,-1.4645,-1.4636,-1.4629,-1.4661,-1.4675,-1.4656,-1.4734,-1.4704,-1.471,-1.4712,-1.473,-1.4741,-1.475,-1.4626,-1.4625,-1.4625,0,0,-1.4758,-1.4749,-1.4774,-1.4769,-1.4759,-1.4742,-1.4748,-1.4732,-1.4724,-1.4746,-1.4713,-1.4723,-1.4738,-1.4734,-1.4734,-1.4803,-1.4778,-1.4806,-1.4852,-1.4873,-1.4882,-1.4889,-1.4914,-1.4924,-1.4811,-1.4812,-1.4812,0,-1.4803,-1.482,-1.479,-1.4808,-1.4809,-1.4768,-1.4793,-1.4789,-1.4783,-1.4785,-1.4764,-1.4781,-1.4773,-1.4804,-1.4821,-1.4822,-1.4829,-1.4808,-1.4882,-1.489,-1.4897,-1.492,-1.493,-1.4815,-1.4815,-1.4814,-1.4814,0,-1.4877,-1.4889,-1.491,-1.4904,-1.4908,-1.4929,-1.4903,-1.491,-1.489,-1.4876,-1.4899,-1.4888,-1.4891,-1.4897,-1.4878,-1.4925,-1.4914,-1.4888,-1.4851,-1.4911,-1.4933,-1.4942,-1.482,-1.4819,-1.4818,-1.4817,0,0,-1.4986,-1.4962,-1.4971,-1.4968,-1.4954,-1.4963,-1.4983,-1.4986,-1.4993,-1.4989,-1.5006,-1.5019,-1.4994,-1.4995,-1.4974,-1.4992,-1.5048,-1.4964,-1.4963,-1.4981,-1.5101,-1.5121,-1.5132,-1.5031,-1.5033,-1.5034,-1.5102,0,-1.5053,-1.5085,-1.5058,-1.5095,-1.5107,-1.5068,-1.5085,-1.5079,-1.5066,-1.5074,-1.506,-1.507,-1.5037,-1.5037,-1.5052,-1.5038,-1.5072,-1.5033,-1.5047,-1.5048,-1.505,-1.5143,-1.5165,-1.5229,-1.511,-1.5111,-1.5112,0,-1.5137,-1.5137,-1.5175,-1.5158,-1.5162,-1.5178,-1.5178,-1.5186,-1.5179,-1.5168,-1.5168,-1.5143,-1.5162,-1.5125,-1.5151,-1.5124,-1.5128,-1.5122,-1.5124,-1.5125,-1.5084,-1.5148,-1.5249,-1.5259,-1.5125,-1.5124,-1.5124,0,-1.5213,-1.5222,-1.5246,-1.5245,-1.5226,-1.5239,-1.5232,-1.5222,-1.5225,-1.5226,-1.5228,-1.523,-1.5232,-1.5235,-1.5212,-1.5187,-1.5241,-1.5202,-1.5234,-1.5234,-1.5247,-1.5247,-1.5352,-1.5249,-1.5249,-1.5249,-1.5249,0,-1.5292,-1.5317,-1.528,-1.5295,-1.5322,-1.5291,-1.5319,-1.5308,-1.53,-1.5313,-1.5279,-1.5292,-1.526,-1.5269,-1.5251,-1.5276,-1.5277,-1.5269,-1.5264,-1.5273,-1.5274,-1.5275,-1.5271,-1.5251,-1.5251,-1.525,-1.525,0,-1.5382,-1.5358,-1.5382,-1.5362,-1.5358,-1.5379,-1.5363,-1.5376,-1.536,-1.5376,-1.5379,-1.5354,-1.5364,-1.5341,-1.5347,-1.5335,-1.537,-1.5358,-1.5373,-1.5369,-1.5402,-1.54,-1.5512,-1.5526,-1.5414,-1.5415,-1.5416,0,-1.5434,-1.5452,-1.5435,-1.544,-1.5435,-1.5444,-1.5447,-1.5418,-1.5422,-1.5415,-1.5429,-1.5436,-1.5439,-1.5456,-1.544,-1.5445,-1.5432,-1.5472,-1.5433,-1.5441,-1.5434,-1.5433,-1.5435,-1.548,-1.5481,-1.5482,-1.5483,0,-1.5529,-1.5517,-1.5522,-1.5523,-1.5527,-1.5527,-1.5524,-1.5531,-1.5499,-1.5506,-1.5515,-1.5518,-1.5523,-1.5531,-1.5532,-1.5525,-1.55,-1.5495,-1.5503,-1.5512,-1.552,-1.5517,-1.5395,-1.5493,-1.5492,-1.5491,-1.5491,-1.549,-1.5603,-1.5617,-1.5606,-1.5613,-1.5608,-1.5606,-1.5618,-1.5603,-1.561,-1.5612,-1.5594,-1.5607,-1.5599,-1.5597,-1.5594,-1.5604,-1.5586,-1.5597,-1.56,-1.5603,-1.5609,-1.5518,-1.5604,-1.5603,-1.5603,-1.5603,-1.5603,0,-1.5697,-1.5688,-1.5694,-1.5691,-1.5697,-1.5671,-1.5666,-1.5673,-1.5684,-1.5679,-1.5683,-1.5693,-1.57,-1.5684,-1.5688,-1.5699,-1.5688,-1.5702,-1.5701,-1.57,-1.5624,-1.5617,-1.5711,-1.5711,-1.5711,-1.5711,-1.5711,-1.5711,-1.5746,-1.5769,-1.5755,-1.5775,-1.5766,-1.5778,-1.5778,-1.5776,-1.5772,-1.5784,-1.579,-1.5779,-1.5769,-1.5772,-1.5778,-1.5773,-1.5776,-1.5795,-1.5786,-1.5716,-1.5705,-1.5695,-1.5689,-1.5795,-1.5795,-1.586,-1.5861,-1.5862]},{"header":{"parameterUnit":"m.s-1","parameterCategory":1,"la1":30.2991,"la2":30.254,"lo1":-89.0895,"lo2":-89.0444,"dy":0.0017,"dx":0.0017,"nx":28,"ny":28,"refTime":"2024-10-07T09:00:00:Z","depth":0,"parameterNumber":3,"parameterNumberName":"V-component_of_WINDS"},"data":[0,0,0,0,0,0,0,0,0,0,0,0,0,0,0,0,0,0,0,0,0,0,0,0,0,0,0,0,0,0,0,0,0,0,0,0,0,0,0,0,0,0,0,0,0,0,0,0,0,0,0,0,0,0,0,0,0,0,-3.5243,-3.5243,0,-3.5253,-3.5253,-3.5253,-3.5205,-3.5204,-3.5202,-3.5201,-3.5209,-3.5211,-3.5212,0,0,0,0,0,0,0,0,0,0,0,0,0,-3.5182,-3.5183,-3.5243,-3.5243,-3.5244,-3.5253,-3.5253,-3.5253,-3.5205,-3.5204,-3.5202,-3.5201,-3.5209,-3.5211,-3.5212,0,0,0,0,0,0,0,0,0,0,0,0,0,-3.5202,-3.5184,-3.5243,-3.5221,-3.5219,-3.5253,-3.5253,-3.5254,-3.5206,-3.5204,-3.5202,-3.52,-3.5208,-3.521,-3.5213,-3.5268,0,0,-3.522,-3.5221,0,0,0,0,0,0,0,0,-3.5201,-3.5204,-3.5224,-3.5222,-3.522,-3.5226,-3.5235,-3.5258,-3.5206,-3.5211,-3.5201,-3.5199,-3.5216,-3.5218,-3.5224,-3.5269,-3.5269,-3.522,-3.5221,-3.5222,-3.5223,0,0,0,0,0,0,0,-3.5199,-3.5203,-3.5247,-3.5224,-3.5222,-3.521,-3.521,-3.5239,-3.5225,-3.521,-3.5207,-3.5209,-3.5215,-3.5222,-3.5224,-3.5269,-3.522,-3.5222,-3.5223,-3.5224,-3.5361,-3.5363,0,0,0,0,0,0,-3.5201,-3.5202,-3.5247,-3.5247,-3.5205,-3.5213,-3.5213,-3.5226,-3.5225,-3.5222,-3.521,-3.5206,-3.5219,-3.5221,-3.5224,-3.529,-3.5222,-3.5224,-3.5226,-3.5359,-3.5362,-3.5364,0,0,0,0,0,0,-3.52,-3.5206,-3.5246,-3.5224,-3.5228,-3.5216,-3.5231,-3.5228,-3.5235,-3.5225,-3.5222,-3.522,-3.5218,-3.5221,-3.5258,-3.5289,-3.5225,-3.5227,-3.5356,-3.536,-3.5363,-3.5421,0,0,0,0,0,0,-3.5198,-3.5205,-3.5227,-3.5225,-3.523,-3.5281,-3.5233,-3.5229,-3.5239,-3.5234,-3.5233,-3.5231,-3.5216,-3.5255,-3.526,-3.5291,-3.5229,-3.5353,-3.5358,-3.5362,-3.5416,-3.5426,-3.5434,0,0,0,0,0,-3.5196,-3.5242,-3.5228,-3.5233,-3.5256,-3.5283,-3.5285,-3.5268,-3.5242,-3.5263,-3.5257,-3.5231,-3.5285,-3.5259,-3.5265,-3.5297,-3.5351,-3.5356,-3.5361,-3.5412,-3.5424,-3.5434,0,0,0,0,0,0,-3.5246,-3.5241,-3.5226,-3.5272,-3.5278,-3.5274,-3.53,-3.5281,-3.5294,-3.5288,-3.5265,-3.5266,-3.5307,-3.5305,-3.5277,-3.5351,-3.5314,-3.532,-3.535,-3.5362,-3.5371,-3.537,-3.5231,0,0,0,0,0,-3.5263,-3.5285,-3.5279,-3.5321,-3.5325,-3.5313,-3.5323,-3.5309,-3.5315,-3.5317,-3.5313,-3.5319,-3.5337,-3.5349,-3.5365,-3.5416,-3.5416,-3.5441,-3.545,-3.5458,-3.5463,-3.5491,-3.5502,-3.5381,-3.5381,-3.5381,0,0,-3.5297,-3.5297,-3.5312,-3.5331,-3.5334,-3.5358,-3.5315,-3.5341,-3.5358,-3.532,-3.5355,-3.5354,-3.5358,-3.5403,-3.5422,-3.5403,-3.5497,-3.5464,-3.547,-3.5472,-3.5497,-3.5509,-3.5519,-3.5384,-3.5384,-3.5383,0,0,-3.5371,-3.5373,-3.5408,-3.5413,-3.5419,-3.5411,-3.5419,-3.5419,-3.5416,-3.5452,-3.5424,-3.5444,-3.5476,-3.548,-3.5487,-3.5565,-3.5543,-3.5571,-3.5618,-3.5645,-3.5655,-3.5663,-3.5691,-3.5702,-3.5577,-3.5577,-3.5577,0,-3.5412,-3.5447,-3.5429,-3.5458,-3.5467,-3.5435,-3.5471,-3.5476,-3.5486,-3.5493,-3.5472,-3.5512,-3.5513,-3.5559,-3.5578,-3.5585,-3.5594,-3.5571,-3.5655,-3.5663,-3.5671,-3.5697,-3.5708,-3.5581,-3.558,-3.558,-3.558,0,-3.5497,-3.5522,-3.555,-3.5562,-3.5575,-3.5607,-3.5594,-3.5608,-3.5594,-3.5588,-3.5625,-3.5625,-3.5641,-3.5651,-3.5637,-3.5695,-3.5683,-3.5659,-3.5621,-3.5686,-3.5711,-3.5721,-3.5586,-3.5584,-3.5583,-3.5582,0,0,-3.5601,-3.5605,-3.5615,-3.5621,-3.5626,-3.5645,-3.5676,-3.5693,-3.5706,-3.5715,-3.574,-3.5769,-3.5747,-3.5755,-3.5741,-3.5765,-3.5827,-3.5738,-3.5737,-3.5754,-3.5892,-3.591,-3.5922,-3.5813,-3.5815,-3.5816,-3.5892,0,-3.5673,-3.5727,-3.5713,-3.5766,-3.5789,-3.576,-3.5787,-3.5793,-3.5789,-3.5808,-3.5802,-3.5823,-3.5793,-3.5797,-3.582,-3.5815,-3.5855,-3.5809,-3.5836,-3.5837,-3.5835,-3.5935,-3.5953,-3.6025,-3.5901,-3.5903,-3.5904,0,-3.5764,-3.5778,-3.5835,-3.5837,-3.5846,-3.5871,-3.5886,-3.5904,-3.5911,-3.5906,-3.5916,-3.5898,-3.5929,-3.5891,-3.5933,-3.5903,-3.5913,-3.5912,-3.5915,-3.5916,-3.5874,-3.5938,-3.6047,-3.6057,-3.5919,-3.5918,-3.5917,0,-3.5834,-3.5867,-3.5905,-3.5911,-3.5915,-3.5934,-3.5936,-3.5941,-3.5952,-3.5966,-3.5973,-3.5989,-3.5998,-3.6011,-3.5998,-3.5972,-3.6042,-3.6003,-3.6039,-3.6039,-3.6054,-3.6053,-3.6165,-3.6062,-3.6062,-3.6061,-3.6061,0,-3.5916,-3.5951,-3.5937,-3.596,-3.5999,-3.5983,-3.6022,-3.6021,-3.6026,-3.6049,-3.6025,-3.6047,-3.6028,-3.6048,-3.6038,-3.6075,-3.6079,-3.6076,-3.6073,-3.6078,-3.6078,-3.6084,-3.6078,-3.6064,-3.6064,-3.6063,-3.6063,0,-3.6,-3.5992,-3.6031,-3.6033,-3.6035,-3.6063,-3.6064,-3.6086,-3.6081,-3.611,-3.6116,-3.6108,-3.613,-3.6119,-3.6142,-3.6135,-3.6183,-3.6173,-3.6181,-3.6178,-3.6214,-3.6211,-3.6333,-3.6349,-3.6236,-3.6237,-3.6238,0,-3.6052,-3.6079,-3.6085,-3.6099,-3.6103,-3.6126,-3.6138,-3.6124,-3.6137,-3.6148,-3.6169,-3.619,-3.6205,-3.6243,-3.6239,-3.6257,-3.6247,-3.6289,-3.6249,-3.6254,-3.6248,-3.6246,-3.6249,-3.6296,-3.6298,-3.6299,-3.6299,0,-3.6146,-3.6141,-3.616,-3.6179,-3.6195,-3.6208,-3.6219,-3.6232,-3.6218,-3.6235,-3.6258,-3.6271,-3.6295,-3.6316,-3.6333,-3.6335,-3.6315,-3.6312,-3.6321,-3.6326,-3.633,-3.6329,-3.6202,-3.6309,-3.6308,-3.6307,-3.6307,-3.6307,-3.6215,-3.6239,-3.6247,-3.6269,-3.6277,-3.6288,-3.6309,-3.6308,-3.6327,-3.6347,-3.6337,-3.6365,-3.6372,-3.6392,-3.6397,-3.6418,-3.6401,-3.6415,-3.6418,-3.6421,-3.6426,-3.6327,-3.6421,-3.6421,-3.642,-3.642,-3.642,0,-3.6308,-3.6312,-3.6333,-3.6351,-3.6369,-3.6351,-3.6363,-3.6379,-3.6404,-3.6413,-3.6429,-3.6457,-3.6478,-3.6477,-3.6496,-3.6513,-3.6505,-3.6519,-3.6517,-3.6518,-3.644,-3.643,-3.6525,-3.6525,-3.6525,-3.6525,-3.6525,-3.6525,-3.6358,-3.6396,-3.6393,-3.6435,-3.6439,-3.6467,-3.6475,-3.6486,-3.6493,-3.6526,-3.6544,-3.6543,-3.6548,-3.6568,-3.6586,-3.6585,-3.6594,-3.6611,-3.6607,-3.6534,-3.6523,-3.6513,-3.6504,-3.6613,-3.6613,-3.6683,-3.6683,-3.6684]}]]